weather.gov     
National Weather Service

Terminal Aerodrome Forecast
NWS Homepage
This page is being discontinued on March 12, 2014.
The same data is available at this site. Please update your bookmarks.
Thank you, and we apologize for the inconvenience.
Please send an email to SR-SRH.Webmaster@noaa.gov with any concerns.


Current Version
Previous Version:    01  02  03  04  05  06  07  08  09  10  11  12  13  14  15  16  17  18  19  20  21  
[Printable]
804
FTAK31 PAJN 311100
TAFAPG
TAF
PAPG 311120Z 3112/0112 VRB02KT P6SM VCSH BKN025 OVC050
     FM312200 10005KT P6SM -SHRA SCT015 OVC025
     FM010900 10010KT 6SM -RA BR SCT010 OVC025
      AMD LTD TO CLD VIS AND WIND 3112/3115=


U.S. Dept. of Commerce
NOAA National Weather Service
1325 East West Highway
Silver Spring, MD 20910
E-mail: w-nws.webmaster@noaa.gov
Page last modified: May 16, 2007
NATIONAL WEATHER SERVICE: for Safety, for Work, for Fun - FOR LIFE